Showing default

IRIDE-MS2-HEO-1, 62697

Orbit data source: Space-Track

IRIDE-MS2-HEO-1, 62697 is an Italian payload satellite in SSO that was launched on Tue, 14 Jan 2025 UTC via an FALCON 9 launch vehicle from the Air Force Western Test Range (AFWTR). Payload-class satellites include a variety of spacecraft equipped with specific instruments for various scientific and technological missions. These include communications satellites like Starlink; space stations such as the ISS; scientific satellites like the Hubble; Earth observation satellites from companies like Planet Labs, Umbra, and HawkEye 360; GPS; miniature CubeSats for education and research; and military/defense satellites.

Loading next visibility...
Identifier
62697, 2025-009CS
Orbit
SSO
Country
Flag of ITIT
Related business
Manufacturer
ArgoTec
Mission
Operational Civil Imaging
Bus & Motor
HAWK, Unknown motor
Mass
65 kg wet, 65 kg dry
Launch date (UTC)
2025-01-14 (9 months ago)
Launch vehicle
FALCON 9
Launch site
Air Force Western Test Range (AFWTR)
Object type
Payload
Rocket body
Debris
Shape & HBR
Box + 2 Pan, 0.5 m
Radar Cross Section
0.683 m², Medium (>0.1 m² and < 1m²)

Expand to show TLE details & history
Last TLE update: 8 hours ago

TLE from 8 hours ago
0 IRIDE-MS2-HEO-1
1 62697U 25009CS  25293.22464857  .00005542  00000-0  53747-3 0  9990
2 62697  97.7276  10.8996 0003817  92.0673 268.0983 14.93061500 41515
Epoch: 2025-10-20T05:23Z
TLE epoch observation values (Epoch: 2025-10-20T05:23:29.636Z)
Latitude
-0.00009°
Longitude
-98.9039°
Altitude
591.53 km
Speed
7.564 km/s
True Right ascension
00h 43m 35s
True Declination
0° 00' 00"
Sunlit
Object was in full shadow at epoch
Visualization orbit readout
Latitude
Unknown
Longitude
Unknown
Altitude
Unknown
Speed
Unknown
Apparent Right ascension
Unknown
Apparent Declination
Unknown
Sunlit
N/A
Visualization observer readout
Local Sidereal Time
07:53:06
Azimuth
Unknown
Elevation
Unknown
Doppler factor
Unknown
Orbital elements
Apogee altitude
588.07 km
Perigee altitude
582.754 km
Semi-major axis
6,963.549 km
Eccentricity
0.00038
Inclination
97.7276°
RAAN
10.8996°
Arg. of periapsis
92.0673°
True anomaly
268.05459°
Mean anomaly
268.0983°
Eccentric anomaly
268.07644°
Mean motion
3.73506 °/min
Orbital period
96.38 mins
BSTAR
0.00053747
Loading maneuver chart data...
Computing Atmospheric mass density...
Loading historical data...
Loading historical data...
Loading historical data...
Loading historical data...
Loading historical data...
Loading historical data...
Loading historical data...

Documentation

Showing up to 5 results
|